Simultaneous Nadir Overpasses (SNOs) Predictions

Prediction of SNOs over PacNW region [( 10.00, 139.50) to ( 22.70, 165.60)] between AQUA and NPP Satellites:

Table of predicted SNOs over PacNW region for the next 30.0 days since TLE Epoch: 5/2/2015
Index Date (AQUA) Time (AQUA) AQUA Lat,Lon Date (NPP) Time (NPP) NPP Lat,Lon Distance(km) Time Diff (sec)
1 05/03/2015 15:11:03 22.60, 159.74 05/03/2015 15:14:31 27.68, 158.49 579.49 208
2 05/06/2015 03:30:21 13.56, 149.51 05/06/2015 03:29:23 13.25, 148.14 153.11 58
3 05/14/2015 02:41:54 17.57, 160.99 05/14/2015 02:39:49 17.33, 159.83 126.10 125
4 05/22/2015 03:29:42 12.36, 149.83 05/22/2015 03:29:03 12.02, 148.36 164.21 39




NCC Satellite Simultaneous Nadir Overpasses (SNOs) Prediction Service
